Skip Page Navigation
NASA JPL Caltech
NASA Logo - Jet Propulsion Laboratory + View the NASA Portal
+ Near-Earth Object (NEO) Program
Search JPL
JPL Home Earth Solar System Stars & Galaxies Technology
JPL Solar System Dynamics
BODIES ORBITS EPHEMERIDES TOOLS PHYSICAL DATA DISCOVERY FAQ SITE MAP
JPL Small-Body Database Browser
Search: [ help ]  
172529 (2003 TK26)
Classification: Main-belt Asteroid          SPK-ID: 2172529
Ephemeris | Orbit Diagram | Orbital Elements | Physical Parameters | Discovery Circumstances ]

[ hide orbit diagram ]
Orbit Diagram
Note: Make sure you have Java enabled on your browser to see the applet. This applet is provided as a 3D orbit visualization tool. The applet was implemented using 2-body methods, and hence should not be used for determining accurate long-term trajectories (over several years or decades) or planetary encounter circumstances. For accurate long-term ephemerides, please instead use our Horizons system.
Orbit Viewer

Additional Notes: the orbits shown in the applet are color coded. The planets are white lines, and the asteroid/comet is a blue line. The bright white line indicates the portion of the orbit that is above the ecliptic plane, and the darker portion is below the ecliptic plane. Likewise for the asteroid/comet orbit, the light blue indicates the portion above the ecliptic plane, and the dark blue the portion below the ecliptic plane.

Orbit Viewer applet originally written and kindly provided by Osamu Ajiki (AstroArts), and further modified by Ron Baalke (JPL).


Orbital Elements at Epoch 2456400.5 (2013-Apr-18.0) TDB
Reference: MPO224135 (heliocentric ecliptic J2000)
 Element Value Uncertainty (1-sigma)   Units 
e 0.0787154 n/a  
a 2.3550611 n/a AU
q 2.1696815 n/a AU
i 8.15995 n/a deg
node 69.96683 n/a deg
peri 357.50737 n/a deg
M 178.26413 n/a deg
tp 2455746.8230736
(2011-Jul-04.32307360)
n/a JED
period 1320.0843798
3.61
n/a
n/a
d
yr
n 0.27270984 n/a deg/d
Q 2.5404407 n/a AU
  Orbit Determination Parameters
   # obs. used (total)      130  
   first obs. used      2001-??-??  
   last obs. used      2012-02-18  
   # oppositions      7  
   planetary ephem.      DE403  
   condition code      0  
   fit RMS      0.50  
   data source      MPC:mpu  
   producer      MPCLINUX  

Additional Information
 T_jup = 3.537 

Ephemeris | Orbit Diagram | Orbital Elements | Physical Parameters | Discovery Circumstances ]

Physical Parameter Table
Parameter Symbol Value Units Sigma Reference Notes
absolute magnitude H 16.4 mag n/a MPO224135  

172529 (2003 TK26)          Discovered 2003-Oct-01 by LONEOS at Anderson Mesa (699)
Reference: 20071224/Numbers.arcLast Updated: 2007-12-22

Alternate Designations
 2003 TK26 = 2001 AL42 = 2005 EP283 
Ephemeris | Orbit Diagram | Orbital Elements | Physical Parameters | Discovery Circumstances ]
ABOUT SSD CREDITS/AWARDS PRIVACY/COPYRIGHT GLOSSARY LINKS
FirstGov 2013-May-23 12:37 UT
(server date/time)  
NASA Home Page
Site Manager:   Donald K. Yeomans
Webmaster  Alan B. Chamberlin